GFSNE_prec_radar_021.txt.gz
Reflectivity
23 27 30 23 22 24 25 21 9 -17 -20 -20 -20 -20 -20 -20 -20 -20 -20 -20 -20 -20 -20 -20 -20 -20 -20 -20 -20 -20 -20 -20 -20 -15 -20 22 29 25
-1 9 17 18 16 6 -7 -6 -6 -20 -20 -20 -9 -20 -20 -20 -20 -20 -20 -20 -20 -20 -20 -20 -20 -20 -20 -20 -20 -20 -20 -16 -20 -20 -20 17 5 26
-20 -20 -20 -20 -20 -17 -7 -20 -20 -20 -20 -20 -20 -20 -20 -20 -20 -20 -20 -20 -20 -20 -20 -20 -20 -20 -20 -20 -20 -20 -20 -20 -20 -20 -17 -18 1 18
-20 -17 -20 -20 -20 -20 -20 -20 -20 -20 -20 -20 -20 -20 -20 -20 -20 -20 -20 -20 -20 -20 -20 -20 -20 -20 -20 -20 -20 -20 -20 -20 -20 -20 -20 -17 -13 -12
-20 -20 -20 -20 -20 -20 -20 -20 -20 -20 -20 -20 -20 -20 -20 -20 -20 -20 -20 -20 -20 -20 -20 -20 -20 -20 -20 -20 -20 -20 -20 -20 -20 -20 -20 -19 0 3
-20 -20 -20 -20 -20 -20 -20 -20 -20 -20 -20 -20 -20 -20 -20 -20 -20 -20 -20 -20 -20 -20 -20 -20 -20 -20 -20 -20 -20 -20 -20 -20 -20 -20 -20 -20 -20 -9
-20 -20 -20 -20 -20 -20 -20 -20 -16 -3 -3 -5 2 -7 -3 -8 -1 -1 -2 -20 -20 -20 -20 -20 -20 -20 -20 -20 -20 -20 -20 -20 -20 -20 -20 -20 -11 1
-20 -20 -20 -20 -20 -20 -20 -3 -5 3 2 9 4 1 -2 -2 -3 1 9 6 5 0 0 -20 -20 -20 -20 -20 -20 -20 -20 -20 -9 8 -20 -15 19 -3
-6 -20 -20 -20 -15 -2 -5 7 -4 -8 -16 1 4 2 2 -1 1 9 10 10 8 2 7 6 3 2 2 3 -6 -20 -20 -20 -19 5 -8 -20 17 18
-20 -10 -0 -2 -2 -13 -8 5 5 7 8 7 -2 6 5 5 5 6 11 12 11 7 5 11 6 6 4 -11 -20 -20 -20 -20 -20 -20 -20 -20 -14 18
-3 -0 -3 -20 -1 1 8 12 10 8 5 -3 -9 -5 -20 -20 -17 12 15 17 16 8 7 12 8 5 3 1 -20 -20 -20 -20 -20 -20 -20 -20 -20 2
2 2 -9 -20 -20 -16 17 12 9 3 1 2 3 4 -18 11 1 15 17 16 14 9 1 10 5 5 4 1 -20 -20 -20 -20 -20 -20 -20 2 -7 -18
7 2 6 5 13 6 -20 2 6 4 4 4 3 3 9 10 4 10 8 16 16 14 -2 9 4 6 7 6 5 -6 -20 -14 -20 -19 -20 -8 6 -7
8 9 15 -13 -20 -20 -20 -20 -3 -11 1 4 4 3 4 5 1 2 8 11 12 8 2 24 8 8 13 9 -3 -11 -1 -20 -20 -3 -20 2 -19 -20
12 8 -6 -20 -20 -20 -20 -20 -20 -1 -3 -2 4 7 2 3 9 12 11 11 12 10 3 22 9 8 13 14 8 -1 5 -20 -20 -7 2 -20 -20 -20
1 7 -19 -20 -20 -20 -20 -20 -5 -2 -1 -1 -1 4 5 -1 6 10 11 9 11 10 6 6 10 10 17 11 9 8 13 13 -8 2 -2 -20 -20 -20
2 -4 -19 -20 -20 -20 -20 -20 -20 -20 -20 -20 -4 -5 0 3 -1 -12 8 10 11 8 10 9 2 7 11 12 10 3 8 10 -20 0 -20 -20 -20 -20
-1 -6 -15 -20 -20 -20 -2 -20 -20 -9 -20 -20 -20 -20 -3 -9 -19 -15 -13 -2 5 6 10 11 9 9 9 6 1 7 2 -1 -1 -0 -5 -1 -18 -20
2 -3 -5 -10 -20 -20 -20 -20 -20 -3 -3 -20 -20 -20 -20 2 -3 -2 -20 4 -3 4 9 14 12 12 12 4 -1 -20 4 6 4 -2 -5 -5 -20 -20
0 -3 -7 -14 -17 -20 -20 -20 -20 -1 -0 -19 -20 -20 -20 -0 -1 0 -3 2 2 -10 -5 -16 2 7 11 11 -1 -11 -20 5 -1 1 -1 -7 -20 -20
-5 -8 -9 -20 -19 -17 -20 -20 -20 -17 -0 0 -2 -20 -20 -11 -7 -7 -11 -19 -17 0 -3 -20 -20 -19 -15 -20 -20 -20 -20 -9 -1 13 -10 -5 -17 -20
-12 -13 -19 -19 -20 -20 -20 -20 -20 -12 -3 -14 -0 -0 -20 -17 -6 -2 -2 -5 -6 -1 -4 -3 -16 -18 -20 -20 -20 -20 4 7 5 -20 -20 -19 -3 -1
-20 -20 -20 -20 -20 -20 -20 -20 -20 -20 -20 -20 -1 -2 -20 -20 -2 -2 1 -2 -16 -20 -20 -20 -20 -20 -20 -20 -20 -20 -20 -20 -11 -2 -20 -20 -20 -20

GFSNE_prec_radar_024.txt.gz
Reflectivity
6 6 12 9 10 16 23 26 22 8 11 7 6 9 -20 -20 -20 -20 -20 -20 -20 -20 -20 -20 -20 -20 -20 -20 -20 -20 -20 -20 -20 -20 -20 -18 9 -20
11 10 8 11 11 9 14 11 10 5 7 2 1 -0 -19 -20 -20 -20 -20 -20 -20 -20 -20 -20 -20 -20 -20 -20 -20 -20 -20 -20 -20 -20 -20 -20 -20 -20
-8 -18 -20 -17 -20 -20 -14 6 6 1 -15 -20 -10 -20 -20 -20 -20 -20 -20 -20 -20 -20 -20 -20 -20 -20 -20 -20 -20 -20 -20 -20 -20 -20 -20 -20 -20 -20
-20 -20 -20 -20 -20 -20 -20 -20 -20 -20 -20 -20 -20 -20 -20 -20 -20 -20 -20 -20 -20 -20 -20 -20 -20 -20 -20 -20 -20 -20 -20 -20 -20 -20 -20 -20 -20 -20
-20 -20 -20 -20 -20 -20 -20 -20 -20 -20 -20 -20 -20 -20 -20 -20 -20 -20 -20 -20 -20 -20 -20 -20 -20 -20 -20 -20 -20 -20 -20 -20 -20 -20 -20 -20 -20 -20
-20 -20 -20 -20 -20 -20 -20 -20 -20 -20 -20 -20 -20 -20 -20 -20 -20 -20 -20 -20 -20 -20 -20 -20 -20 -20 -20 -20 -20 -20 -20 -20 -20 -20 -20 -20 -20 -20
-20 -20 -20 -20 -20 -20 -20 -20 -20 -20 -20 -3 -2 -7 -16 -20 -20 -20 -20 -20 -20 -20 -20 -20 -20 -12 -20 -20 -20 -20 -20 -20 -20 -20 -20 -20 -20 -17
-20 -20 -20 -20 -20 -20 -20 -20 -19 -5 -10 5 2 4 -0 3 -3 3 8 8 9 -20 4 10 -11 7 -6 -20 -20 -20 -20 -20 -20 -20 -20 -20 -20 -20
-20 -20 -20 -20 -16 -20 -20 -19 -20 -20 -20 1 6 3 2 -2 1 3 9 13 10 -15 8 14 13 10 9 -19 -13 -20 -20 -20 -20 -20 -20 -20 -20 -20
-2 -20 -5 -7 -4 -20 2 5 -5 -4 -3 6 11 8 5 -12 -10 0 11 11 11 11 8 15 -4 11 -5 7 -20 7 -10 -20 -20 -20 -20 -20 -20 -20
-2 -1 4 9 3 -12 13 12 10 7 1 -6 -5 -20 -20 -19 -16 13 17 17 15 8 -15 14 15 11 8 5 -7 4 -14 -20 -20 -20 -20 -20 -20 -20
2 4 -18 5 -20 6 14 18 15 1 1 6 3 1 -13 6 -19 -5 15 16 16 14 -13 13 15 13 13 -18 -11 -1 5 -20 -20 -20 -20 -20 -20 -20
7 6 9 13 -12 -20 -20 1 -2 -3 -3 1 4 8 9 6 9 7 12 18 14 13 -4 17 16 10 11 11 12 15 14 14 3 -12 -20 -20 -18 7
11 11 15 -17 -20 -20 -14 -10 -20 -17 7 9 8 12 13 13 14 14 14 14 15 13 7 25 15 10 13 13 13 1 14 9 -0 13 10 -5 -13 12
14 5 8 -20 -20 -20 -20 -20 -20 6 1 4 5 9 11 9 4 10 12 16 10 12 10 12 21 10 16 15 14 15 17 16 -14 7 2 3 1 1
2 10 -1 -10 -19 -12 -4 2 3 4 3 4 -1 6 10 14 2 12 13 16 16 11 9 -9 11 13 15 14 14 13 21 18 13 8 7 26 23 1
-2 10 5 2 7 5 1 1 4 1 3 3 4 6 6 13 0 -14 -20 9 15 14 14 9 -1 1 7 11 20 17 13 14 17 18 11 12 10 5
5 3 4 5 5 3 1 2 6 -2 -1 -0 3 2 4 11 8 13 -2 -12 -11 11 13 17 16 12 10 6 -5 4 20 19 18 5 -1 4 9 -6
1 2 4 3 2 1 0 3 3 3 4 -4 -4 -11 -19 2 -1 9 8 14 11 5 10 17 18 16 15 17 6 -20 10 14 22 18 2 6 -0 24
-2 0 -0 2 1 -0 2 2 1 3 0 -3 -0 -0 -19 2 -4 0 -1 -3 5 10 10 -20 3 15 19 20 22 0 -20 -4 19 16 11 11 -19 -20
-4 -3 -1 -0 0 0 3 4 5 4 1 1 1 -1 1 -2 -14 -12 -8 -7 -19 -8 4 -20 -9 -20 3 6 -3 0 -1 -20 -13 15 11 7 5 8
-2 -5 -5 -1 2 2 4 3 1 1 0 -0 2 4 5 7 -1 -9 2 4 6 5 3 -20 -9 -13 -4 0 5 -6 3 2 -13 -12 6 4 9 15
-20 -20 -20 -2 2 1 1 4 -0 2 0 1 1 1 8 7 4 2 5 6 5 7 -2 -1 -0 -12 -7 -3 3 4 -1 9 13 10 0 -16 -20 -20

GFSNE_prec_radar_030.txt.gz
Reflectivity
10 18 21 32 -4 -16 -16 -8 22 9 -20 -20 1 -12 28 24 31 31 34 23 25 -14 -20 -20 -20 -20 -20 -20 -20 -20 -20 -20 -20 -20 -20 -20 -20 -20
-20 -20 -19 -9 9 -8 8 21 21 -16 -8 -11 -2 -19 -17 16 20 30 12 -2 -7 -20 -20 -20 -20 -20 -20 -20 -20 -20 -20 -20 -20 -20 -20 -20 -20 -20
9 10 13 -20 -20 5 -12 -6 18 13 11 -17 -20 -13 -7 -13 -19 5 8 3 -19 -20 -20 -20 -20 -20 -20 -20 -20 -20 -20 -20 -20 -20 -20 -20 -20 -20
-20 -20 -20 -20 -20 -20 -20 -20 -20 -20 -20 -20 -20 -20 -20 -5 2 1 8 8 -19 -20 -20 -20 -20 -20 -20 -20 -20 -20 -20 -20 -20 -20 -20 -20 -20 -20
-20 -20 -20 -20 -20 -20 -20 -11 -20 -19 -20 -20 -20 -20 -20 -20 -20 -20 -20 -20 -20 -20 -20 -20 -20 -20 -20 -20 -20 -20 -20 -20 -20 -20 -20 -20 -20 -20
-20 -20 -20 -20 -20 -1 -20 -20 -20 -20 -20 -20 -20 -20 -20 -20 -20 -20 -20 -20 -20 -16 -20 -20 -20 -20 -20 -20 -20 -20 -20 -20 -20 -20 -20 -20 -20 -20
-20 -20 -20 -20 -1 -20 0 -20 -20 -20 -20 -20 -20 -20 -20 -20 -20 -18 -20 -20 -20 -20 -20 -20 -20 -20 -20 -20 -20 -20 -20 -20 -20 -20 -20 -20 -20 -20
-20 -20 -20 -16 -20 6 4 -1 -20 -20 -20 -20 -20 -20 -20 -20 -20 -20 -20 -20 -20 -20 -20 -20 -20 -20 -20 -20 -20 -20 -20 -20 -20 -20 -20 -20 -20 -20
-20 -20 -20 -20 -20 -20 -20 -20 -20 -20 -20 -20 -20 -20 -20 -20 -20 -20 -20 -20 -20 -20 -20 -20 -20 -20 -20 -20 -20 -20 -20 -20 -20 -20 -20 -20 -20 -20
-15 -20 -20 -20 -20 -12 -9 -20 -10 2 -4 10 3 -4 -12 -20 -2 11 18 9 15 6 -10 2 -20 -20 -20 -20 -20 -20 -12 -20 -20 -20 -20 -20 -20 -20
-20 -20 7 -3 -20 -14 -15 -19 -20 -20 -20 -11 10 14 -5 -14 -20 1 -19 -20 -20 -20 -20 9 -1 -20 -20 -20 -20 -20 -20 -20 -20 -20 -20 -20 -20 -20
-20 -20 -20 -18 15 6 3 -3 -20 -20 -20 -20 -20 -20 -20 -20 -20 -20 -20 1 -20 -19 -20 0 -20 -4 2 -20 -20 -20 -20 -20 -20 -20 -20 -20 -20 -20
-11 -16 -20 1 2 -8 -4 -4 -15 -8 -6 -7 -20 -20 -20 -20 -17 -13 -19 -19 -20 -20 -13 9 -8 -20 0 -1 -20 -7 -12 -20 -20 -20 -20 -20 -20 -20
2 -17 13 -20 0 -13 -17 -20 9 -1 -20 -20 -20 -12 1 2 10 14 8 -7 5 18 -15 10 11 2 -2 -5 6 -20 -18 -20 -13 -20 13 -20 -20 -20
-6 -13 -20 -4 14 4 5 13 -19 -16 2 13 4 11 -8 -20 -20 -20 1 -20 -20 -20 -19 -20 6 -20 -20 -20 -5 -20 -20 -16 -20 -20 -20 -20 -20 -18
-20 -20 0 8 -19 -1 7 8 5 13 -16 5 2 -2 -16 3 -19 22 -18 -20 -20 -20 -20 -20 -20 -20 -20 -20 -20 -20 -20 -20 -20 -20 27 -20 -20 -17
-20 -16 4 -20 -11 -19 -7 -16 5 5 -1 -8 -1 1 -19 -20 -20 -20 -1 -18 -20 -20 -20 -20 -20 -20 -20 -20 -5 -20 -20 -20 -20 -20 -17 -20 -0 -15
-20 5 -4 -13 -18 -10 6 -7 -15 2 1 1 -19 -4 1 -5 -20 -20 -20 -20 -15 -15 -20 -20 -20 -11 -20 -20 -20 -20 -20 -20 -20 -8 19 -12 -20 -20
1 0 -4 -7 -2 1 -2 -5 -8 -6 5 -20 5 -5 -3 -20 -20 -10 -20 -20 -20 -20 -20 23 -6 -1 15 8 12 15 -7 -20 -3 -20 2 9 4 -20
-7 3 -2 -1 2 -7 -20 -9 -20 2 -18 -20 -18 -19 -19 -20 5 -20 -20 -20 -20 -15 -16 -20 -20 -20 -20 -18 -15 -20 -20 -9 6 -20 -20 12 -3 -20
-20 3 -11 -7 -2 -20 -20 -20 -20 -3 -4 -20 -20 -20 -20 -3 -20 7 -18 -20 -8 -13 -2 -20 -20 -20 -20 -20 -3 -16 -20 -20 -20 -20 -20 -3 15 -15
-20 -20 -11 -20 -20 -20 -20 -20 -20 -20 -20 -20 -20 -20 -20 1 -20 7 -9 -12 -15 -20 -16 -18 -17 -20 -19 -20 1 -20 -20 -20 -20 -20 -20 -8 7 -6
-20 -20 -15 -20 -20 -20 -20 -20 -20 -20 -20 -20 -20 -20 -20 -20 -20 -12 -13 -20 -20 -20 -20 -20 -20 -20 -20 -20 -20 -20 -20 -20 6 -20 -20 -20 -20 -20

GFSNE_prec_radar_033.txt.gz
Reflectivity
-20 -20 -20 -20 -20 -5 15 14 27 4 -20 -20 -20 -20 -20 -20 -15 28 20 29 38 27 15 5 -12 -7 -20 -20 -20 -20 -20 -20 -20 -20 -20 -20 -20 -20
-20 -20 -10 -6 0 12 11 6 9 -4 -12 -20 -20 -20 -20 -20 -20 -20 25 33 22 32 20 28 -15 -13 -12 -20 -20 -20 -20 -20 -20 -20 -20 -20 -20 -20
-20 -20 -20 -20 -20 -20 -20 -18 -15 5 1 -20 -3 -20 -20 -20 -20 -9 -5 23 27 22 9 11 2 -19 -19 -20 -20 -20 -20 -20 -20 -20 -20 -20 -20 -20
-20 -20 -20 -20 -20 -20 -20 -20 -20 -20 -20 -20 -20 -20 -20 -20 -20 -20 -20 -14 19 17 1 13 5 -9 -20 -20 -20 -20 -20 -20 -20 -20 -20 -20 -20 -20
-20 -20 -20 -20 -20 -20 -20 -20 -20 -20 -20 -20 -20 -20 -20 -20 -20 -20 -20 -20 -19 -20 -9 -11 -18 -20 -20 -20 -20 -20 -20 -20 -20 -20 -20 -20 -20 -20
-20 -20 -20 -20 -20 -20 -20 -20 -20 -20 -20 -20 -20 -20 -20 -20 -20 -20 -20 -20 -20 -20 -20 -20 -20 -20 -20 -20 -20 -20 -20 -20 -20 -20 -20 -20 -20 -20
-20 -20 -20 -20 -20 -2 -17 -20 -20 -20 -20 -20 -20 -20 -20 -20 -20 -20 -20 -20 -20 -20 -20 -20 -20 -20 -20 -20 -20 -20 -20 -20 -20 -20 -20 -20 -20 -20
-20 -20 -20 -20 -20 -20 -20 -20 -20 -20 -20 -20 -20 -20 -20 -20 -20 -20 -20 -20 -20 -20 -20 -20 -20 -20 -20 -20 -20 -20 -20 -20 -20 -20 -20 -20 -20 -20
-20 -20 -20 -20 -20 -20 -20 -20 -20 -2 7 -12 -20 -20 -20 -20 -20 -20 -20 -20 -20 -20 -20 -20 -20 -20 -20 -20 -20 -20 -20 -20 -20 -20 -20 -20 -20 -20
-20 -20 -20 -20 -20 -20 -8 -20 -20 -20 -20 -10 -8 -11 8 -20 -20 -20 -19 -1 4 -20 -20 -20 -20 -20 -20 -20 -20 -20 -20 -20 -20 -20 -20 -20 -20 -20
-20 -20 -20 -20 -20 8 -18 -20 -20 -20 -20 -18 10 0 -5 -19 17 12 7 -20 -20 -20 -20 -20 -20 -20 -20 -20 -20 -20 -20 -20 -20 -20 -20 -20 -20 -20
-20 -20 -20 -20 7 12 4 9 -20 -20 -20 -20 -20 -20 -20 -20 -20 -20 -20 -20 -20 -11 -0 -9 -20 -19 -18 -20 -20 -20 -20 -20 -20 -20 -20 -20 -20 -20
-20 -15 -20 -2 -3 2 15 -16 -20 -13 -16 -5 -20 -20 -20 -20 -20 -18 20 17 0 -3 -16 13 -16 -20 -8 -20 -20 -20 -20 -20 -20 -20 -20 -20 -20 -20
-20 -20 -5 0 11 1 -9 4 14 -4 -20 -3 2 -19 -20 -8 -20 -16 -20 -8 -3 -14 -20 -12 13 -20 -20 -19 -20 -20 -20 -20 -20 -20 -20 -20 -20 -20
-20 -20 -15 6 -19 -20 -2 -5 -19 11 6 -11 4 -4 -18 -2 0 -14 -2 -20 -19 -19 -20 -17 -0 -17 -20 -20 -20 -20 -20 -20 -20 -20 -20 -20 -20 -20
-20 -20 -18 -14 -20 -20 -20 -20 -6 -13 -5 -20 -20 -20 -20 -20 -20 -20 -20 -20 -20 -20 -20 10 -20 -20 -19 -20 -20 -20 -20 -20 -20 -20 -20 -20 -20 -20
-6 -19 -20 -20 -20 -20 -12 -20 -20 -20 -18 -20 -20 -18 -20 -20 -20 -20 -20 -20 -20 -20 -20 -20 -20 -20 -20 -16 -8 -20 -20 -20 -20 -20 -20 -20 -20 -20
-20 -20 -20 -20 -20 -4 -20 -20 -20 -20 -3 -20 -20 -18 -20 -20 -20 -20 -20 -20 -20 -20 -20 -20 -20 -20 -4 -13 12 -19 -7 -7 -20 13 -20 2 -20 -20
-20 -20 -20 -20 -4 -1 -20 -20 -20 -14 1 -20 -20 -20 -20 -20 -20 -20 -20 -20 -20 -20 -13 -20 -20 -20 -20 -20 -20 -20 -20 -20 5 -12 -20 -16 -6 -20
-20 -9 -20 -20 -3 -8 -20 -20 -20 -20 -20 -20 -20 -20 -20 -20 -20 -20 -20 -20 -20 -20 -20 -20 -20 -20 -20 -20 -20 -20 -20 -20 -20 -20 -20 -20 -20 -2
-20 -20 -20 -13 -20 -20 -20 -20 -20 -20 -20 -20 -20 -20 -20 -20 -20 -20 -20 -20 -20 -20 -20 -20 -20 -20 -20 -20 -17 -20 -20 -20 -20 -20 -20 -20 -20 -20
-20 -20 -20 -20 -20 -20 -20 -20 -20 -20 -20 -20 -20 -20 -20 -20 -20 -20 -20 -20 -20 -20 -20 -20 -20 -20 -20 -20 -20 -20 -20 -20 -20 -20 -10 -20 -20 -14
-20 -20 -20 -20 -20 -20 -20 -20 -20 -20 -20 -20 -20 -20 -20 -20 -20 -20 -20 -20 -20 -20 -20 -20 -20 -20 -20 -20 -20 -20 -20 -20 -20 -20 -20 -20 -20 -20